Terminal Aerodrome Forecast
Issued by NWS Columbia, SC

Home | Current Version | Previous Version | Text Only | Print | Product List | Glossary On
Versions: 1 2 3 4 5 6 7 8 9 10 11 12 13 14 15 16 17 18 19 20 21 22 23 24 25 26 27 28 29 30 31 32 33 34 35 36 37 38 39 40 41 42 43
000
FTAK31 PAJN 231100
TAFAGS
TAF
PAGS 231139Z 2312/2412 VRB04KT P6SM VCFG SCT200
     FM231400 VRB06KT P6SM SCT020 BKN150
     FM231900 23008KT P6SM BKN150
     FM240400 22005KT P6SM BKN010 BKN100
      AMD LTD TO CLD VIS AND WIND=

USA.gov is the U.S. government's official web portal to all federal, state and local government web resources and services.